This is the latest recevied weather packets stored in our database for station/object OK1LPD-6. If no packets are shown the sender has not sent any weather packets the latest 1 day(s).
| Time | Temp. | Humidity | Pressure | Rain* | Wind** | Luminosity | Snow |
|---|---|---|---|---|---|---|---|
| 1777996481 | 25° C | 36% | 1004.1 hPa | 0 mm | 0 m/s | - | - |
| 1777995897 | 25° C | 36% | 1004.1 hPa | 0 mm | 0 m/s | - | - |
| 1777995282 | 25.56° C | 33% | 1004.2 hPa | 0 mm | 0 m/s | - | - |
| 1777994681 | 26.11° C | 31% | 1004.4 hPa | 0 mm | 0 m/s | - | - |
| 1777994095 | 26.67° C | 31% | 1004.7 hPa | 0 mm | 0 m/s | - | - |
| 1777993481 | 25.56° C | 33% | 1004.8 hPa | 0 mm | 0 m/s | - | - |
| 1777992882 | 25.56° C | 34% | 1004.6 hPa | 0 mm | 0 m/s | - | - |
| 1777992291 | 25.56° C | 35% | 1004.9 hPa | 0 mm | 0 m/s | - | - |
| 1777991682 | 25° C | 35% | 1004.7 hPa | 0 mm | 0 m/s | - | - |
| 1777991081 | 25° C | 34% | 1005 hPa | 0 mm | 0 m/s | - | - |
| 1777990493 | 25° C | 34% | 1005.2 hPa | 0 mm | 0 m/s | - | - |
| 1777989881 | 25° C | 34% | 1005.3 hPa | 0 mm | 0 m/s | - | - |
| 1777989282 | 25.56° C | 34% | 1005.4 hPa | 0 mm | 0 m/s | - | - |
| 1777988693 | 25.56° C | 34% | 1005.4 hPa | 0 mm | 0 m/s | - | - |
| 1777988082 | 26.11° C | 33% | 1005.5 hPa | 0 mm | 0 m/s | - | - |
| 1777987481 | 26.11° C | 33% | 1005.4 hPa | 0 mm | 0 m/s | - | - |
| 1777986894 | 26.11° C | 35% | 1005.4 hPa | 0 mm | 0 m/s | - | - |
| 1777986283 | 26.11° C | 35% | 1005.4 hPa | 0 mm | 0 m/s | - | - |
| 1777985682 | 25.56° C | 34% | 1005.6 hPa | 0 mm | 0 m/s | - | - |
| 1777985098 | 25.56° C | 33% | 1005.7 hPa | 0 mm | 0 m/s | - | - |
| 1777984482 | 25.56° C | 33% | 1005.8 hPa | 0 mm | 0 m/s | - | - |
| 1777983882 | 25.56° C | 34% | 1005.8 hPa | 0 mm | 0 m/s | - | - |
| 1777983304 | 25.56° C | 35% | 1006 hPa | 0 mm | 0 m/s | - | - |
| 1777982687 | 25.56° C | 35% | 1006.2 hPa | 0 mm | 0 m/s | - | - |
| 1777982083 | 25° C | 34% | 1006.2 hPa | 0 mm | 0 m/s | - | - |
* Rain latest hour (hover to see other rain measurements)
** Current wind speed in m/s (hover to see current wind gust speed)